Weather History for KYIP - December, 2011

Change the Weather History Date:

Wednesday, December 7, 2011

  Actual Average Record
Temperature  
Mean Temperature 32 °F -  
Max Temperature 37 °F 37 °F 58 °F (1980)
Min Temperature 26 °F 25 °F 4 °F (1972)
Degree Days  
Heating Degree Days 34    
Moisture  
Dew Point 24 °F    
Average Humidity 70    
Maximum Humidity 82    
Minimum Humidity 54    
Precipitation  
Precipitation 0.03 in - - ()
Sea Level Pressure  
Sea Level Pressure 30.00 in    
Wind  
Wind Speed 7 mph (West)    
Max Wind Speed 15 mph    
Max Gust Speed -    
Visibility 10 miles    
Events      
Averages and records for this station are not official NWS values.
T = Trace of Precipitation, MM = Missing Value Source: NWS Daily Summary

Daily Weather History Graph

Daily Weather History Graph

Search for Another Location

Airport or City:

Trip Planner

Search our weather history database for the weather conditions in past years. The results will help you decide how hot, cold, wet, or windy it might be!

Date:

Astronomy

Dec. 07, 2011 Rise Set
Actual Time 7:49 AM EST 5:01 PM EST
Civil Twilight 7:17 AM EST 5:33 PM EST
Nautical Twilight 6:42 AM EST 6:08 PM EST
Astronomical Twilight 6:08 AM EST 6:42 PM EST
Moon 3:03 PM EST (12/7) 5:02 AM EST (12/7)
Length of Visible Light 10h 16m
Length of Day
9h 12m
Waxing Gibbous, 92% of the Moon is Illuminated
Dec 7
Waxing Gibbous
Dec 10
Full
Dec 17
Last Quarter
Dec 24
New
Jan 1
First Quarter

Hourly Weather History & Observations

Time (EST) Temp. Windchill Dew Point Humidity Pressure Visibility Wind Dir Wind Speed Gust Speed Precip Events Conditions
12:53 AM 33.1 °F 28.7 °F 28.0 °F 82% 30.09 in 10.0 mi NW 4.6 mph - N/A   Overcast
1:08 AM 33.8 °F 27.7 °F 28.4 °F 81% 30.07 in 10.0 mi NW 6.9 mph - N/A   Overcast
1:49 AM 33.8 °F 27.7 °F 28.4 °F 81% 30.06 in 10.0 mi WNW 6.9 mph - N/A   Overcast
1:53 AM 33.1 °F 26.9 °F 28.0 °F 82% 30.08 in 10.0 mi WNW 6.9 mph - N/A   Overcast
2:17 AM 33.8 °F 28.6 °F 28.4 °F 81% 30.06 in 10.0 mi NW 5.8 mph - N/A   Overcast
2:30 AM 33.8 °F 27.7 °F 28.4 °F 81% 30.06 in 10.0 mi WNW 6.9 mph - N/A   Overcast
2:53 AM 33.8 °F 27.7 °F 26.6 °F 75% 30.05 in 10.0 mi NW 6.9 mph - N/A   Overcast
3:53 AM 33.8 °F 27.7 °F 26.6 °F 75% 30.04 in 10.0 mi NW 6.9 mph - N/A   Overcast
4:53 AM 32.0 °F 25.6 °F 26.1 °F 79% 30.04 in 10.0 mi NW 6.9 mph - N/A   Overcast
5:16 AM 32.0 °F 24.2 °F 26.6 °F 80% 30.03 in 10.0 mi NW 9.2 mph - N/A   Overcast
5:53 AM 32.0 °F 24.2 °F 24.1 °F 73% 30.04 in 10.0 mi NW 9.2 mph - N/A   Overcast
6:35 AM 30.2 °F 21.9 °F 21.2 °F 69% 30.03 in 10.0 mi NW 9.2 mph - N/A   Scattered Clouds
7:53 AM 26.6 °F 22.6 °F 19.4 °F 74% 30.02 in 10.0 mi NW 3.5 mph - N/A   Clear
8:53 AM 26.1 °F 21.9 °F 19.9 °F 78% 30.05 in 10.0 mi SSW 3.5 mph - N/A   Clear
9:53 AM 30.9 °F - 21.9 °F 69% 30.03 in 10.0 mi Calm Calm - N/A   Overcast
10:53 AM 33.1 °F - 21.0 °F 61% 30.02 in 10.0 mi Calm Calm - N/A   Overcast
11:53 AM 33.1 °F 27.7 °F 23.0 °F 66% 29.98 in 10.0 mi SW 5.8 mph - 0.02 in   Mostly Cloudy
12:53 PM 35.1 °F 27.9 °F 24.1 °F 64% 29.96 in 10.0 mi WSW 9.2 mph - 0.01 in   Mostly Cloudy
1:53 PM 35.1 °F 28.6 °F 25.0 °F 67% 29.94 in 10.0 mi WSW 8.1 mph - N/A   Overcast
2:53 PM 36.0 °F 27.1 °F 24.1 °F 62% 29.91 in 10.0 mi WSW 13.8 mph - N/A   Mostly Cloudy
3:53 PM 37.0 °F 28.5 °F 21.9 °F 54% 29.91 in 10.0 mi West 13.8 mph - N/A   Clear
4:53 PM 35.1 °F 28.6 °F 23.0 °F 61% 29.92 in 10.0 mi WSW 8.1 mph - N/A   Clear
5:53 PM 36.0 °F 29.6 °F 21.9 °F 57% 29.94 in 10.0 mi WSW 8.1 mph - N/A   Mostly Cloudy
6:53 PM 32.0 °F 24.8 °F 21.9 °F 66% 29.95 in 10.0 mi WSW 8.1 mph - N/A   Scattered Clouds
7:53 PM 34.0 °F 25.5 °F 21.9 °F 61% 29.96 in 10.0 mi West 11.5 mph - N/A   Overcast
8:53 PM 32.0 °F 23.6 °F 19.0 °F 59% 29.96 in 10.0 mi WSW 10.4 mph - N/A   Partly Cloudy
9:53 PM 30.9 °F 22.8 °F 19.0 °F 61% 29.96 in 10.0 mi WSW 9.2 mph - N/A   Scattered Clouds
10:53 PM 33.1 °F 24.9 °F 19.9 °F 59% 29.97 in 10.0 mi West 10.4 mph - N/A   Overcast
11:15 PM 33.8 °F 24.8 °F 21.2 °F 60% 29.97 in 10.0 mi WNW 12.7 mph - N/A   Overcast
11:53 PM 34.0 °F 24.2 °F 24.1 °F 67% 30.01 in 10.0 mi NW 15.0 mph - N/A   Overcast